Time,TemperatureF,DewpointF,PressureIn,WindDirection,WindDirectionDegrees,WindSpeedMPH,WindSpeedGustMPH,Humidity,HourlyPrecipIn,Conditions,Clouds,dailyrainin,SolarRadiationWatts/m^2,SoftwareType,DateUTC
2013-03-25 00:01:00,53.1,10.7,29.90,NNE,22,0.0,0.0,18,0.00,,,0.00,0,WeatherCatV1.11B39,2013-03-25 07:01:00,
2013-03-25 00:06:00,52.7,11.6,29.90,NNE,22,0.0,0.0,19,0.00,,,0.00,0,WeatherCatV1.11B39,2013-03-25 07:06:00,
2013-03-25 00:11:00,51.7,10.8,29.90,NNE,22,1.0,1.0,19,0.00,,,0.00,0,WeatherCatV1.11B39,2013-03-25 07:11:00,
2013-03-25 00:16:00,50.9,12.4,29.90,NNE,22,1.0,2.0,21,0.00,,,0.00,0,WeatherCatV1.11B39,2013-03-25 07:16:00,
2013-03-25 00:21:00,51.0,11.4,29.90,NNE,22,1.0,2.0,20,0.00,,,0.00,0,WeatherCatV1.11B39,2013-03-25 07:21:00,
2013-03-25 00:26:00,50.7,12.2,29.91,NNE,22,2.0,3.0,21,0.00,,,0.00,0,WeatherCatV1.11B39,2013-03-25 07:26:00,
2013-03-25 00:31:00,50.1,12.8,29.91,NNE,22,0.0,1.0,22,0.00,,,0.00,0,WeatherCatV1.11B39,2013-03-25 07:31:00,
2013-03-25 00:36:00,49.4,13.2,29.91,NNE,22,0.0,1.0,23,0.00,,,0.00,0,WeatherCatV1.11B39,2013-03-25 07:36:00,
2013-03-25 00:41:00,48.7,13.5,29.91,NNE,22,0.0,1.0,24,0.00,,,0.00,0,WeatherCatV1.11B39,2013-03-25 07:41:00,
2013-03-25 00:46:00,48.5,13.4,29.91,NNE,22,1.0,1.0,24,0.00,,,0.00,0,WeatherCatV1.11B39,2013-03-25 07:46:00,
2013-03-25 00:51:00,48.0,13.0,29.91,NNE,22,1.0,2.0,24,0.00,,,0.00,0,WeatherCatV1.11B39,2013-03-25 07:51:00,
2013-03-25 00:56:00,48.4,13.3,29.91,NNE,22,0.0,0.0,24,0.00,,,0.00,0,WeatherCatV1.11B39,2013-03-25 07:56:00,
2013-03-25 01:01:00,48.0,13.0,29.91,NNE,22,2.0,2.0,24,0.00,,,0.00,0,WeatherCatV1.11B39,2013-03-25 08:01:00,
2013-03-25 01:06:00,48.1,13.0,29.91,NNE,22,2.0,3.0,24,0.00,,,0.00,0,WeatherCatV1.11B39,2013-03-25 08:06:00,
2013-03-25 01:11:00,48.1,13.0,29.90,NNE,22,2.0,2.0,24,0.00,,,0.00,0,WeatherCatV1.11B39,2013-03-25 08:11:00,
2013-03-25 01:16:00,48.0,13.0,29.90,NNE,22,3.0,4.0,24,0.00,,,0.00,0,WeatherCatV1.11B39,2013-03-25 08:16:00,
2013-03-25 01:21:00,48.3,13.2,29.90,NNE,22,1.0,3.0,24,0.00,,,0.00,0,WeatherCatV1.11B39,2013-03-25 08:21:00,
2013-03-25 01:26:00,48.1,13.0,29.90,NNE,22,2.0,2.0,24,0.00,,,0.00,0,WeatherCatV1.11B39,2013-03-25 08:26:00,
2013-03-25 01:31:00,48.5,12.4,29.90,NNE,23,1.0,2.0,23,0.00,,,0.00,0,WeatherCatV1.11B39,2013-03-25 08:31:00,
2013-03-25 01:36:00,49.0,12.8,29.90,NNE,23,0.0,1.0,23,0.00,,,0.00,0,WeatherCatV1.11B39,2013-03-25 08:36:00,
2013-03-25 01:41:00,48.9,12.8,29.90,NNE,23,2.0,3.0,23,0.00,,,0.00,0,WeatherCatV1.11B39,2013-03-25 08:41:00,
2013-03-25 01:46:00,48.8,12.7,29.90,NNE,23,2.0,2.0,23,0.00,,,0.00,0,WeatherCatV1.11B39,2013-03-25 08:46:00,
2013-03-25 01:51:00,48.7,13.5,29.90,NNE,23,0.0,1.0,24,0.00,,,0.00,0,WeatherCatV1.11B39,2013-03-25 08:51:00,
2013-03-25 01:56:00,48.5,13.4,29.90,NNE,23,2.0,2.0,24,0.00,,,0.00,0,WeatherCatV1.11B39,2013-03-25 08:56:00,
2013-03-25 02:01:00,48.5,13.4,29.90,NNE,23,2.0,2.0,24,0.00,,,0.00,0,WeatherCatV1.11B39,2013-03-25 09:01:00,
2013-03-25 02:06:00,48.3,13.2,29.90,NNE,23,3.0,4.0,24,0.00,,,0.00,0,WeatherCatV1.11B39,2013-03-25 09:06:00,
2013-03-25 02:11:00,48.2,13.1,29.90,NNE,23,2.0,2.0,24,0.00,,,0.00,0,WeatherCatV1.11B39,2013-03-25 09:11:00,
2013-03-25 02:16:00,48.2,13.1,29.89,NNE,23,2.0,2.0,24,0.00,,,0.00,0,WeatherCatV1.11B39,2013-03-25 09:16:00,
2013-03-25 02:21:00,48.4,13.3,29.89,NNE,23,2.0,3.0,24,0.00,,,0.00,0,WeatherCatV1.11B39,2013-03-25 09:21:00,
2013-03-25 02:26:00,48.2,14.0,29.89,NNE,23,2.0,2.0,25,0.00,,,0.00,0,WeatherCatV1.11B39,2013-03-25 09:26:00,
2013-03-25 02:32:00,47.5,14.3,29.89,NNE,23,1.0,2.0,26,0.00,,,0.00,0,WeatherCatV1.11B39,2013-03-25 09:32:00,
2013-03-25 02:37:00,46.7,13.7,29.89,NNE,23,0.0,1.0,26,0.00,,,0.00,0,WeatherCatV1.11B39,2013-03-25 09:37:00,
2013-03-25 02:42:00,45.7,14.5,29.89,NNE,22,3.0,3.0,28,0.00,,,0.00,0,WeatherCatV1.11B39,2013-03-25 09:42:00,
2013-03-25 02:47:00,45.4,14.2,29.89,NNE,22,0.0,1.0,28,0.00,,,0.00,0,WeatherCatV1.11B39,2013-03-25 09:47:00,
2013-03-25 02:52:00,46.2,14.1,29.89,NNE,22,0.0,2.0,27,0.00,,,0.00,0,WeatherCatV1.11B39,2013-03-25 09:52:00,
2013-03-25 02:57:00,46.6,14.4,29.89,NNE,22,0.0,0.0,27,0.00,,,0.00,0,WeatherCatV1.11B39,2013-03-25 09:57:00,
2013-03-25 03:02:00,46.1,14.0,29.89,NNE,22,0.0,0.0,27,0.00,,,0.00,0,WeatherCatV1.11B39,2013-03-25 10:02:00,
2013-03-25 03:07:00,44.9,14.6,29.89,NNE,22,0.0,0.0,29,0.00,,,0.00,0,WeatherCatV1.11B39,2013-03-25 10:07:00,
2013-03-25 03:12:00,44.6,14.3,29.89,NNE,22,0.0,0.0,29,0.00,,,0.00,0,WeatherCatV1.11B39,2013-03-25 10:12:00,
2013-03-25 03:17:00,43.9,15.2,29.89,NNE,22,0.0,0.0,31,0.00,,,0.00,0,WeatherCatV1.11B39,2013-03-25 10:17:00,
2013-03-25 03:22:00,43.5,14.9,29.89,NNE,22,1.0,2.0,31,0.00,,,0.00,0,WeatherCatV1.11B39,2013-03-25 10:22:00,
2013-03-25 03:27:00,43.7,15.1,29.89,NNE,22,0.0,0.0,31,0.00,,,0.00,0,WeatherCatV1.11B39,2013-03-25 10:27:00,
2013-03-25 03:32:00,43.6,15.0,29.89,NNE,22,0.0,0.0,31,0.00,,,0.00,0,WeatherCatV1.11B39,2013-03-25 10:32:00,
2013-03-25 03:37:00,43.5,15.6,29.89,NNE,22,1.0,2.0,32,0.00,,,0.00,0,WeatherCatV1.11B39,2013-03-25 10:37:00,
2013-03-25 03:42:00,43.2,15.4,29.89,NNE,22,0.0,0.0,32,0.00,,,0.00,0,WeatherCatV1.11B39,2013-03-25 10:42:00,
2013-03-25 03:47:00,42.8,15.7,29.89,NNE,22,0.0,0.0,33,0.00,,,0.00,0,WeatherCatV1.11B39,2013-03-25 10:47:00,
2013-03-25 03:52:00,42.9,15.1,29.90,NNE,22,0.0,0.0,32,0.00,,,0.00,0,WeatherCatV1.11B39,2013-03-25 10:52:00,
2013-03-25 03:57:00,42.6,15.5,29.90,NNE,22,0.0,0.0,33,0.00,,,0.00,0,WeatherCatV1.11B39,2013-03-25 10:57:00,
2013-03-25 04:02:00,42.7,14.9,29.90,NNE,22,0.0,0.0,32,0.00,,,0.00,0,WeatherCatV1.11B39,2013-03-25 11:02:00,
2013-03-25 04:07:00,42.3,15.3,29.90,NNE,22,1.0,2.0,33,0.00,,,0.00,0,WeatherCatV1.11B39,2013-03-25 11:07:00,
2013-03-25 04:12:00,42.2,15.9,29.90,NNE,22,1.0,1.0,34,0.00,,,0.00,0,WeatherCatV1.11B39,2013-03-25 11:12:00,
2013-03-25 04:17:00,42.2,15.9,29.90,NNE,22,0.0,0.0,34,0.00,,,0.00,0,WeatherCatV1.11B39,2013-03-25 11:17:00,
2013-03-25 04:22:00,42.1,15.1,29.90,NNE,22,0.0,0.0,33,0.00,,,0.00,0,WeatherCatV1.11B39,2013-03-25 11:22:00,
2013-03-25 04:27:00,42.1,15.8,29.90,NNE,22,0.0,1.0,34,0.00,,,0.00,0,WeatherCatV1.11B39,2013-03-25 11:27:00,
2013-03-25 04:31:00,42.1,15.1,29.91,NNE,22,2.0,2.0,33,0.00,,,0.00,0,WeatherCatV1.11B39,2013-03-25 11:31:00,
2013-03-25 04:36:00,42.9,15.1,29.90,NNE,22,0.0,0.0,32,0.00,,,0.00,0,WeatherCatV1.11B39,2013-03-25 11:36:00,
2013-03-25 04:42:00,42.5,14.7,29.91,NNE,22,0.0,1.0,32,0.00,,,0.00,0,WeatherCatV1.11B39,2013-03-25 11:42:00,
2013-03-25 04:47:00,41.8,14.8,29.91,NNE,22,2.0,2.0,33,0.00,,,0.00,0,WeatherCatV1.11B39,2013-03-25 11:47:00,
2013-03-25 04:52:00,41.8,15.5,29.91,NNE,22,0.0,2.0,34,0.00,,,0.00,0,WeatherCatV1.11B39,2013-03-25 11:52:00,
2013-03-25 04:57:00,41.5,15.9,29.91,NNE,22,0.0,1.0,35,0.00,,,0.00,0,WeatherCatV1.11B39,2013-03-25 11:57:00,
2013-03-25 05:02:00,41.5,15.2,29.91,NNE,22,2.0,3.0,34,0.00,,,0.00,0,WeatherCatV1.11B39,2013-03-25 12:02:00,
2013-03-25 05:07:00,41.7,15.4,29.91,NNE,22,2.0,3.0,34,0.00,,,0.00,0,WeatherCatV1.11B39,2013-03-25 12:07:00,
2013-03-25 05:11:00,41.5,15.9,29.91,NNE,22,1.0,3.0,35,0.00,,,0.00,0,WeatherCatV1.11B39,2013-03-25 12:11:00,
2013-03-25 05:16:00,41.6,15.3,29.91,NNE,22,2.0,2.0,34,0.00,,,0.00,0,WeatherCatV1.11B39,2013-03-25 12:16:00,
2013-03-25 05:21:00,42.1,15.1,29.91,NNE,22,2.0,2.0,33,0.00,,,0.00,0,WeatherCatV1.11B39,2013-03-25 12:21:00,
2013-03-25 05:26:00,42.2,15.2,29.91,NNE,22,2.0,2.0,33,0.00,,,0.00,0,WeatherCatV1.11B39,2013-03-25 12:26:00,
2013-03-25 05:31:00,42.0,15.7,29.91,NNE,22,1.0,2.0,34,0.00,,,0.00,0,WeatherCatV1.11B39,2013-03-25 12:31:00,
2013-03-25 05:36:00,42.0,15.0,29.91,NNE,22,1.0,2.0,33,0.00,,,0.00,0,WeatherCatV1.11B39,2013-03-25 12:36:00,
2013-03-25 05:41:00,41.9,15.6,29.91,NNE,22,2.0,2.0,34,0.00,,,0.00,0,WeatherCatV1.11B39,2013-03-25 12:41:00,
2013-03-25 05:46:00,41.8,16.2,29.92,NNE,22,3.0,3.0,35,0.00,,,0.00,0,WeatherCatV1.11B39,2013-03-25 12:46:00,
2013-03-25 05:51:00,41.7,16.1,29.92,NNE,22,2.0,3.0,35,0.00,,,0.00,0,WeatherCatV1.11B39,2013-03-25 12:51:00,
2013-03-25 05:56:00,41.5,15.2,29.92,NNE,22,1.0,3.0,34,0.00,,,0.00,0,WeatherCatV1.11B39,2013-03-25 12:56:00,
2013-03-25 06:01:00,41.6,15.3,29.92,NNE,22,0.0,0.0,34,0.00,,,0.00,0,WeatherCatV1.11B39,2013-03-25 13:01:00,
2013-03-25 06:06:00,41.7,15.4,29.92,NNE,22,0.0,0.0,34,0.00,,,0.00,0,WeatherCatV1.11B39,2013-03-25 13:06:00,
2013-03-25 06:11:00,41.6,15.3,29.92,NNE,22,0.0,0.0,34,0.00,,,0.00,0,WeatherCatV1.11B39,2013-03-25 13:11:00,
2013-03-25 06:16:00,41.1,15.6,29.93,NNE,22,0.0,0.0,35,0.00,,,0.00,0,WeatherCatV1.11B39,2013-03-25 13:16:00,
2013-03-25 06:21:00,40.9,16.0,29.93,NNE,22,0.0,0.0,36,0.00,,,0.00,5,WeatherCatV1.11B39,2013-03-25 13:21:00,
2013-03-25 06:26:00,41.4,15.8,29.93,NNE,22,0.0,1.0,35,0.00,,,0.00,9,WeatherCatV1.11B39,2013-03-25 13:26:00,
2013-03-25 06:31:00,41.2,15.6,29.93,NNE,22,0.0,0.0,35,0.00,,,0.00,12,WeatherCatV1.11B39,2013-03-25 13:31:00,
2013-03-25 06:36:00,40.9,16.0,29.93,NNE,22,0.0,0.0,36,0.00,,,0.00,16,WeatherCatV1.11B39,2013-03-25 13:36:00,
2013-03-25 06:42:00,41.0,16.1,29.93,NNE,22,0.0,0.0,36,0.00,,,0.00,19,WeatherCatV1.11B39,2013-03-25 13:42:00,
2013-03-25 06:47:00,41.1,16.2,29.93,NNE,22,0.0,0.0,36,0.00,,,0.00,25,WeatherCatV1.11B39,2013-03-25 13:47:00,
2013-03-25 06:52:00,41.2,16.9,29.93,NNE,22,0.0,0.0,37,0.00,,,0.00,35,WeatherCatV1.11B39,2013-03-25 13:52:00,
2013-03-25 06:57:00,42.3,17.9,29.94,NW,317,2.0,2.0,37,0.00,,,0.00,53,WeatherCatV1.11B39,2013-03-25 13:57:00,
2013-03-25 07:02:00,44.1,17.5,29.94,NW,318,3.0,3.0,34,0.00,,,0.00,67,WeatherCatV1.11B39,2013-03-25 14:02:00,
2013-03-25 07:07:00,46.2,18.0,29.94,NW,321,2.0,2.0,32,0.00,,,0.00,86,WeatherCatV1.11B39,2013-03-25 14:07:00,
2013-03-25 07:12:00,47.9,17.2,29.94,NW,321,1.0,2.0,29,0.00,,,0.00,120,WeatherCatV1.11B39,2013-03-25 14:12:00,
2013-03-25 07:17:00,49.1,17.4,29.95,NW,321,2.0,3.0,28,0.00,,,0.00,139,WeatherCatV1.11B39,2013-03-25 14:17:00,
2013-03-25 07:22:00,50.0,18.2,29.95,NW,321,3.0,3.0,28,0.00,,,0.00,160,WeatherCatV1.11B39,2013-03-25 14:22:00,
2013-03-25 07:27:00,50.7,17.1,29.95,NW,319,1.0,2.0,26,0.00,,,0.00,178,WeatherCatV1.11B39,2013-03-25 14:27:00,
2013-03-25 07:32:00,51.3,17.6,29.95,NW,319,3.0,4.0,26,0.00,,,0.00,197,WeatherCatV1.11B39,2013-03-25 14:32:00,
2013-03-25 07:37:00,52.1,17.4,29.96,NW,318,2.0,3.0,25,0.00,,,0.00,214,WeatherCatV1.11B39,2013-03-25 14:37:00,
2013-03-25 07:42:00,52.8,17.0,29.96,NW,318,2.0,3.0,24,0.00,,,0.00,236,WeatherCatV1.11B39,2013-03-25 14:42:00,
2013-03-25 07:47:00,53.7,17.8,29.96,NW,318,2.0,4.0,24,0.00,,,0.00,251,WeatherCatV1.11B39,2013-03-25 14:47:00,
2013-03-25 07:52:00,54.4,17.4,29.96,WNW,293,4.0,4.0,23,0.00,,,0.00,269,WeatherCatV1.11B39,2013-03-25 14:52:00,
2013-03-25 07:57:00,55.1,18.0,29.96,WNW,294,2.0,3.0,23,0.00,,,0.00,290,WeatherCatV1.11B39,2013-03-25 14:57:00,
2013-03-25 08:02:00,55.7,17.5,29.97,WNW,294,2.0,2.0,22,0.00,,,0.00,308,WeatherCatV1.11B39,2013-03-25 15:02:00,
2013-03-25 08:07:00,56.7,16.1,29.97,WNW,294,1.0,2.0,20,0.00,,,0.00,329,WeatherCatV1.11B39,2013-03-25 15:07:00,
2013-03-25 08:12:00,57.6,16.8,29.97,WNW,294,2.0,3.0,20,0.00,,,0.00,345,WeatherCatV1.11B39,2013-03-25 15:12:00,
2013-03-25 08:17:00,58.1,16.1,29.97,WNW,293,2.0,5.0,19,0.00,,,0.00,364,WeatherCatV1.11B39,2013-03-25 15:17:00,
2013-03-25 08:22:00,59.0,16.8,29.97,WNW,293,3.0,5.0,19,0.00,,,0.00,383,WeatherCatV1.11B39,2013-03-25 15:22:00,
2013-03-25 08:27:00,59.6,17.3,29.97,West,265,3.0,5.0,19,0.00,,,0.00,401,WeatherCatV1.11B39,2013-03-25 15:27:00,
2013-03-25 08:32:00,60.0,18.8,29.97,West,265,2.0,3.0,20,0.00,,,0.00,418,WeatherCatV1.11B39,2013-03-25 15:32:00,
2013-03-25 08:37:00,60.4,18.0,29.97,WSW,245,3.0,4.0,19,0.00,,,0.00,438,WeatherCatV1.11B39,2013-03-25 15:37:00,
2013-03-25 08:42:00,60.8,17.0,29.97,WSW,245,2.0,4.0,18,0.00,,,0.00,455,WeatherCatV1.11B39,2013-03-25 15:42:00,
2013-03-25 08:47:00,61.4,18.8,29.97,WSW,256,4.0,6.0,19,0.00,,,0.00,471,WeatherCatV1.11B39,2013-03-25 15:47:00,
2013-03-25 08:52:00,61.8,17.9,29.97,West,260,4.0,5.0,18,0.00,,,0.00,487,WeatherCatV1.11B39,2013-03-25 15:52:00,
2013-03-25 08:57:00,62.4,18.3,29.97,WNW,289,4.0,5.0,18,0.00,,,0.00,506,WeatherCatV1.11B39,2013-03-25 15:57:00,
2013-03-25 09:02:00,63.5,19.2,29.97,WNW,290,5.0,6.0,18,0.00,,,0.00,520,WeatherCatV1.11B39,2013-03-25 16:02:00,
2013-03-25 09:07:00,64.2,19.8,29.97,WNW,286,5.0,6.0,18,0.00,,,0.00,540,WeatherCatV1.11B39,2013-03-25 16:07:00,
2013-03-25 09:12:00,64.8,19.0,29.97,West,275,5.0,8.0,17,0.00,,,0.00,555,WeatherCatV1.11B39,2013-03-25 16:12:00,
2013-03-25 09:17:00,65.8,16.9,29.97,WSW,241,7.0,7.0,15,0.00,,,0.00,573,WeatherCatV1.11B39,2013-03-25 16:17:00,
2013-03-25 09:22:00,66.0,17.0,29.96,WNW,297,4.0,7.0,15,0.00,,,0.00,589,WeatherCatV1.11B39,2013-03-25 16:22:00,
2013-03-25 09:27:00,66.8,17.7,29.97,NW,305,5.0,6.0,15,0.00,,,0.00,603,WeatherCatV1.11B39,2013-03-25 16:27:00,
2013-03-25 09:32:00,67.8,16.9,29.97,West,271,5.0,8.0,14,0.00,,,0.00,619,WeatherCatV1.11B39,2013-03-25 16:32:00,
2013-03-25 09:37:00,67.9,15.3,29.97,WNW,302,5.0,8.0,13,0.00,,,0.00,633,WeatherCatV1.11B39,2013-03-25 16:37:00,
2013-03-25 09:42:00,68.2,17.2,29.97,West,263,8.0,9.0,14,0.00,,,0.00,650,WeatherCatV1.11B39,2013-03-25 16:42:00,
2013-03-25 09:47:00,67.8,15.2,29.97,West,270,6.0,8.0,13,0.00,,,0.00,663,WeatherCatV1.11B39,2013-03-25 16:47:00,
2013-03-25 09:52:00,68.3,15.6,29.97,SW,227,3.0,7.0,13,0.00,,,0.00,677,WeatherCatV1.11B39,2013-03-25 16:52:00,
2013-03-25 09:57:00,68.8,14.1,29.97,WNW,300,3.0,5.0,12,0.00,,,0.00,689,WeatherCatV1.11B39,2013-03-25 16:57:00,
2013-03-25 10:02:00,69.8,14.9,29.97,West,264,3.0,9.0,12,0.00,,,0.00,700,WeatherCatV1.11B39,2013-03-25 17:02:00,
2013-03-25 10:07:00,70.2,15.2,29.97,WSW,249,2.0,5.0,12,0.00,,,0.00,717,WeatherCatV1.11B39,2013-03-25 17:07:00,
2013-03-25 10:12:00,70.3,15.3,29.97,South,190,3.0,5.0,12,0.00,,,0.00,729,WeatherCatV1.11B39,2013-03-25 17:12:00,
2013-03-25 10:17:00,71.7,14.4,29.97,SSW,195,4.0,8.0,11,0.00,,,0.00,738,WeatherCatV1.11B39,2013-03-25 17:17:00,
2013-03-25 10:22:00,71.7,14.4,29.96,SSW,213,4.0,6.0,11,0.00,,,0.00,752,WeatherCatV1.11B39,2013-03-25 17:22:00,
2013-03-25 10:27:00,71.6,14.3,29.96,West,275,5.0,6.0,11,0.00,,,0.00,765,WeatherCatV1.11B39,2013-03-25 17:27:00,
2013-03-25 10:32:00,71.5,14.2,29.96,SW,231,6.0,7.0,11,0.00,,,0.00,775,WeatherCatV1.11B39,2013-03-25 17:32:00,
2013-03-25 10:37:00,72.1,14.7,29.96,WSW,251,5.0,8.0,11,0.00,,,0.00,788,WeatherCatV1.11B39,2013-03-25 17:37:00,
2013-03-25 10:42:00,71.7,14.4,29.96,WSW,243,5.0,5.0,11,0.00,,,0.00,798,WeatherCatV1.11B39,2013-03-25 17:42:00,
2013-03-25 10:47:00,72.1,14.7,29.95,SSE,155,7.0,7.0,11,0.00,,,0.00,807,WeatherCatV1.11B39,2013-03-25 17:47:00,
2013-03-25 10:52:00,72.2,14.8,29.96,SSW,213,1.0,4.0,11,0.00,,,0.00,814,WeatherCatV1.11B39,2013-03-25 17:52:00,
2013-03-25 10:57:00,73.4,15.7,29.95,SW,236,1.0,7.0,11,0.00,,,0.00,823,WeatherCatV1.11B39,2013-03-25 17:57:00,
2013-03-25 11:02:00,72.5,15.0,29.95,West,268,2.0,6.0,11,0.00,,,0.00,830,WeatherCatV1.11B39,2013-03-25 18:02:00,
2013-03-25 11:07:00,72.9,15.3,29.95,SW,226,4.0,8.0,11,0.00,,,0.00,842,WeatherCatV1.11B39,2013-03-25 18:07:00,
2013-03-25 11:12:00,73.3,15.6,29.94,SW,233,3.0,7.0,11,0.00,,,0.00,849,WeatherCatV1.11B39,2013-03-25 18:12:00,
2013-03-25 11:17:00,74.5,16.6,29.94,SSW,211,3.0,6.0,11,0.00,,,0.00,854,WeatherCatV1.11B39,2013-03-25 18:17:00,
2013-03-25 11:22:00,75.3,15.0,29.94,South,182,7.0,8.0,10,0.00,,,0.00,863,WeatherCatV1.11B39,2013-03-25 18:22:00,
2013-03-25 11:27:00,74.6,14.4,29.94,SW,218,2.0,6.0,10,0.00,,,0.00,867,WeatherCatV1.11B39,2013-03-25 18:27:00,
2013-03-25 11:32:00,74.0,14.0,29.93,South,182,5.0,6.0,10,0.00,,,0.00,875,WeatherCatV1.11B39,2013-03-25 18:32:00,
2013-03-25 11:37:00,74.1,14.1,29.93,SW,220,3.0,7.0,10,0.00,,,0.00,881,WeatherCatV1.11B39,2013-03-25 18:37:00,
2013-03-25 11:42:00,75.1,14.8,29.93,SW,233,4.0,9.0,10,0.00,,,0.00,882,WeatherCatV1.11B39,2013-03-25 18:42:00,
2013-03-25 11:47:00,74.5,14.4,29.93,WSW,247,6.0,8.0,10,0.00,,,0.00,888,WeatherCatV1.11B39,2013-03-25 18:47:00,
2013-03-25 11:52:00,74.1,14.1,29.93,NW,313,3.0,3.0,10,0.00,,,0.00,893,WeatherCatV1.11B39,2013-03-25 18:52:00,
2013-03-25 11:57:00,76.2,15.7,29.92,SW,234,6.0,6.0,10,0.00,,,0.00,898,WeatherCatV1.11B39,2013-03-25 18:57:00,
2013-03-25 12:02:00,76.0,13.1,29.92,West,276,3.0,8.0,9,0.00,,,0.00,898,WeatherCatV1.11B39,2013-03-25 19:02:00,
2013-03-25 12:07:00,76.3,13.3,29.92,SSE,161,3.0,6.0,9,0.00,,,0.00,896,WeatherCatV1.11B39,2013-03-25 19:07:00,
2013-03-25 12:12:00,77.4,14.2,29.92,West,265,1.0,8.0,9,0.00,,,0.00,905,WeatherCatV1.11B39,2013-03-25 19:12:00,
2013-03-25 12:17:00,76.8,13.7,29.91,SSW,207,4.0,8.0,9,0.00,,,0.00,909,WeatherCatV1.11B39,2013-03-25 19:17:00,
2013-03-25 12:22:00,77.3,14.1,29.91,SSW,197,2.0,8.0,9,0.00,,,0.00,911,WeatherCatV1.11B39,2013-03-25 19:22:00,
2013-03-25 12:27:00,77.0,13.9,29.91,WSW,248,7.0,9.0,9,0.00,,,0.00,912,WeatherCatV1.11B39,2013-03-25 19:27:00,
2013-03-25 12:32:00,77.6,14.3,29.91,South,183,4.0,9.0,9,0.00,,,0.00,909,WeatherCatV1.11B39,2013-03-25 19:32:00,
2013-03-25 12:37:00,78.2,14.8,29.91,West,281,8.0,9.0,9,0.00,,,0.00,909,WeatherCatV1.11B39,2013-03-25 19:37:00,
2013-03-25 12:42:00,77.2,14.0,29.91,NW,305,6.0,8.0,9,0.00,,,0.00,907,WeatherCatV1.11B39,2013-03-25 19:42:00,
2013-03-25 12:47:00,76.3,13.3,29.91,WNW,286,5.0,9.0,9,0.00,,,0.00,907,WeatherCatV1.11B39,2013-03-25 19:47:00,
2013-03-25 12:52:00,76.9,13.8,29.90,NNW,338,4.0,10.0,9,0.00,,,0.00,907,WeatherCatV1.11B39,2013-03-25 19:52:00,
2013-03-25 12:57:00,76.2,13.3,29.90,SW,220,2.0,7.0,9,0.00,,,0.00,904,WeatherCatV1.11B39,2013-03-25 19:57:00,
2013-03-25 13:02:00,78.3,14.8,29.90,SW,228,5.0,8.0,9,0.00,,,0.00,902,WeatherCatV1.11B39,2013-03-25 20:02:00,
2013-03-25 13:07:00,77.5,11.6,29.90,SSE,168,3.0,4.0,8,0.00,,,0.00,898,WeatherCatV1.11B39,2013-03-25 20:07:00,
2013-03-25 13:12:00,78.3,14.8,29.89,ESE,114,4.0,7.0,9,0.00,,,0.00,895,WeatherCatV1.11B39,2013-03-25 20:12:00,
2013-03-25 13:17:00,78.6,15.1,29.89,WSW,256,4.0,7.0,9,0.00,,,0.00,888,WeatherCatV1.11B39,2013-03-25 20:17:00,
2013-03-25 13:22:00,78.8,15.2,29.89,West,267,7.0,7.0,9,0.00,,,0.00,886,WeatherCatV1.11B39,2013-03-25 20:22:00,
2013-03-25 13:27:00,78.0,14.6,29.89,NW,315,3.0,6.0,9,0.00,,,0.00,881,WeatherCatV1.11B39,2013-03-25 20:27:00,
2013-03-25 13:32:00,78.8,15.2,29.89,WNW,301,7.0,9.0,9,0.00,,,0.00,874,WeatherCatV1.11B39,2013-03-25 20:32:00,
2013-03-25 13:37:00,78.5,15.0,29.89,North,6,6.0,8.0,9,0.00,,,0.00,867,WeatherCatV1.11B39,2013-03-25 20:37:00,
2013-03-25 13:42:00,78.2,14.8,29.88,NW,316,4.0,6.0,9,0.00,,,0.00,863,WeatherCatV1.11B39,2013-03-25 20:42:00,
2013-03-25 13:47:00,78.2,14.8,29.88,North,357,0.0,5.0,9,0.00,,,0.00,854,WeatherCatV1.11B39,2013-03-25 20:47:00,
2013-03-25 13:52:00,78.6,15.1,29.88,NNW,343,7.0,8.0,9,0.00,,,0.00,849,WeatherCatV1.11B39,2013-03-25 20:52:00,
2013-03-25 13:57:00,79.5,15.7,29.88,SW,220,6.0,6.0,9,0.00,,,0.00,844,WeatherCatV1.11B39,2013-03-25 20:57:00,
2013-03-25 14:02:00,79.3,12.9,29.88,West,261,5.0,11.0,8,0.00,,,0.00,837,WeatherCatV1.11B39,2013-03-25 21:02:00,
2013-03-25 14:07:00,79.7,15.9,29.87,SSW,198,4.0,8.0,9,0.00,,,0.00,826,WeatherCatV1.11B39,2013-03-25 21:07:00,
2013-03-25 14:12:00,79.7,13.2,29.87,WSW,254,5.0,7.0,8,0.00,,,0.00,819,WeatherCatV1.11B39,2013-03-25 21:12:00,
2013-03-25 14:17:00,79.2,12.8,29.87,NW,324,1.0,7.0,8,0.00,,,0.00,807,WeatherCatV1.11B39,2013-03-25 21:17:00,
2013-03-25 14:22:00,78.2,14.8,29.87,North,357,3.0,8.0,9,0.00,,,0.00,796,WeatherCatV1.11B39,2013-03-25 21:22:00,
2013-03-25 14:27:00,79.6,13.1,29.86,NNW,343,2.0,7.0,8,0.00,,,0.00,782,WeatherCatV1.11B39,2013-03-25 21:27:00,
2013-03-25 14:32:00,79.4,15.7,29.87,WSW,247,1.0,10.0,9,0.00,,,0.00,773,WeatherCatV1.11B39,2013-03-25 21:32:00,
2013-03-25 14:37:00,79.8,16.0,29.86,WSW,250,2.0,9.0,9,0.00,,,0.00,761,WeatherCatV1.11B39,2013-03-25 21:37:00,
2013-03-25 14:42:00,79.6,15.8,29.86,SW,226,5.0,8.0,9,0.00,,,0.00,751,WeatherCatV1.11B39,2013-03-25 21:42:00,
2013-03-25 14:47:00,80.1,16.2,29.86,WSW,257,6.0,11.0,9,0.00,,,0.00,740,WeatherCatV1.11B39,2013-03-25 21:47:00,
2013-03-25 14:52:00,80.1,16.2,29.86,SW,228,4.0,9.0,9,0.00,,,0.00,724,WeatherCatV1.11B39,2013-03-25 21:52:00,
2013-03-25 14:57:00,80.6,16.6,29.86,WNW,287,7.0,13.0,9,0.00,,,0.00,715,WeatherCatV1.11B39,2013-03-25 21:57:00,
2013-03-25 15:02:00,79.6,15.8,29.86,WNW,295,6.0,8.0,9,0.00,,,0.00,703,WeatherCatV1.11B39,2013-03-25 22:02:00,
2013-03-25 15:07:00,78.7,15.1,29.85,West,270,7.0,7.0,9,0.00,,,0.00,687,WeatherCatV1.11B39,2013-03-25 22:07:00,
2013-03-25 15:12:00,78.8,15.2,29.85,South,177,2.0,7.0,9,0.00,,,0.00,673,WeatherCatV1.11B39,2013-03-25 22:12:00,
2013-03-25 15:17:00,79.6,15.8,29.85,West,275,5.0,9.0,9,0.00,,,0.00,661,WeatherCatV1.11B39,2013-03-25 22:17:00,
2013-03-25 15:22:00,79.3,15.6,29.85,SE,145,3.0,6.0,9,0.00,,,0.00,647,WeatherCatV1.11B39,2013-03-25 22:22:00,
2013-03-25 15:27:00,78.5,15.0,29.85,WNW,282,7.0,7.0,9,0.00,,,0.00,633,WeatherCatV1.11B39,2013-03-25 22:27:00,
2013-03-25 15:32:00,80.3,16.3,29.85,WSW,257,8.0,15.0,9,0.00,,,0.00,619,WeatherCatV1.11B39,2013-03-25 22:32:00,
2013-03-25 15:37:00,80.1,16.2,29.85,SW,232,5.0,11.0,9,0.00,,,0.00,603,WeatherCatV1.11B39,2013-03-25 22:37:00,
2013-03-25 15:42:00,79.5,15.7,29.85,NW,304,3.0,12.0,9,0.00,,,0.00,589,WeatherCatV1.11B39,2013-03-25 22:42:00,
2013-03-25 15:47:00,79.9,16.0,29.84,SE,139,4.0,7.0,9,0.00,,,0.00,575,WeatherCatV1.11B39,2013-03-25 22:47:00,
2013-03-25 15:52:00,79.7,15.9,29.84,SW,228,6.0,7.0,9,0.00,,,0.00,557,WeatherCatV1.11B39,2013-03-25 22:52:00,
2013-03-25 15:57:00,79.4,15.7,29.84,South,184,1.0,9.0,9,0.00,,,0.00,543,WeatherCatV1.11B39,2013-03-25 22:57:00,
2013-03-25 16:02:00,79.9,16.0,29.84,WSW,252,5.0,9.0,9,0.00,,,0.00,527,WeatherCatV1.11B39,2013-03-25 23:02:00,
2013-03-25 16:07:00,79.9,16.0,29.84,WNW,286,7.0,9.0,9,0.00,,,0.00,508,WeatherCatV1.11B39,2013-03-25 23:07:00,
2013-03-25 16:12:00,80.0,16.1,29.84,SW,225,7.0,9.0,9,0.00,,,0.00,492,WeatherCatV1.11B39,2013-03-25 23:12:00,
2013-03-25 16:17:00,80.0,16.1,29.84,West,280,5.0,8.0,9,0.00,,,0.00,476,WeatherCatV1.11B39,2013-03-25 23:17:00,
2013-03-25 16:22:00,79.6,15.8,29.84,SW,228,8.0,9.0,9,0.00,,,0.00,455,WeatherCatV1.11B39,2013-03-25 23:22:00,
2013-03-25 16:27:00,79.7,15.9,29.84,NW,307,5.0,6.0,9,0.00,,,0.00,439,WeatherCatV1.11B39,2013-03-25 23:27:00,
2013-03-25 16:32:00,80.1,16.2,29.84,West,276,5.0,14.0,9,0.00,,,0.00,422,WeatherCatV1.11B39,2013-03-25 23:32:00,
2013-03-25 16:37:00,79.7,15.9,29.83,South,186,6.0,13.0,9,0.00,,,0.00,404,WeatherCatV1.11B39,2013-03-25 23:37:00,
2013-03-25 16:42:00,79.1,15.4,29.83,WSW,255,7.0,11.0,9,0.00,,,0.00,387,WeatherCatV1.11B39,2013-03-25 23:42:00,
2013-03-25 16:47:00,79.0,15.4,29.83,SSW,207,6.0,12.0,9,0.00,,,0.00,371,WeatherCatV1.11B39,2013-03-25 23:47:00,
2013-03-25 16:52:00,78.8,15.2,29.83,West,277,5.0,12.0,9,0.00,,,0.00,350,WeatherCatV1.11B39,2013-03-25 23:52:00,
2013-03-25 16:57:00,78.6,15.1,29.83,WNW,296,5.0,7.0,9,0.00,,,0.00,334,WeatherCatV1.11B39,2013-03-25 23:57:00,
2013-03-25 17:02:00,78.9,15.3,29.83,West,259,12.0,14.0,9,0.00,,,0.00,316,WeatherCatV1.11B39,2013-03-26 00:02:00,
2013-03-25 17:07:00,78.7,15.1,29.83,West,278,11.0,11.0,9,0.00,,,0.00,297,WeatherCatV1.11B39,2013-03-26 00:07:00,
2013-03-25 17:12:00,78.8,15.2,29.83,West,260,6.0,7.0,9,0.00,,,0.00,278,WeatherCatV1.11B39,2013-03-26 00:12:00,
2013-03-25 17:17:00,78.5,15.0,29.83,West,269,9.0,12.0,9,0.00,,,0.00,258,WeatherCatV1.11B39,2013-03-26 00:17:00,
2013-03-25 17:22:00,78.3,14.8,29.83,WSW,251,6.0,10.0,9,0.00,,,0.00,236,WeatherCatV1.11B39,2013-03-26 00:22:00,
2013-03-25 17:27:00,78.3,14.8,29.83,SW,236,6.0,11.0,9,0.00,,,0.00,214,WeatherCatV1.11B39,2013-03-26 00:27:00,
2013-03-25 17:32:00,78.0,17.0,29.83,WSW,245,5.0,14.0,10,0.00,,,0.00,192,WeatherCatV1.11B39,2013-03-26 00:32:00,
2013-03-25 17:37:00,77.9,17.0,29.83,West,275,5.0,9.0,10,0.00,,,0.00,167,WeatherCatV1.11B39,2013-03-26 00:37:00,
2013-03-25 17:42:00,77.7,16.8,29.83,SW,230,4.0,8.0,10,0.00,,,0.00,146,WeatherCatV1.11B39,2013-03-26 00:42:00,
2013-03-25 17:47:00,77.7,16.8,29.84,West,276,7.0,12.0,10,0.00,,,0.00,128,WeatherCatV1.11B39,2013-03-26 00:47:00,
2013-03-25 17:52:00,77.1,16.3,29.84,WNW,285,7.0,13.0,10,0.00,,,0.00,102,WeatherCatV1.11B39,2013-03-26 00:52:00,
2013-03-25 17:57:00,76.8,16.1,29.84,WSW,246,5.0,14.0,10,0.00,,,0.00,88,WeatherCatV1.11B39,2013-03-26 00:57:00,
2013-03-25 18:02:00,76.4,15.8,29.84,WSW,248,8.0,12.0,10,0.00,,,0.00,67,WeatherCatV1.11B39,2013-03-26 01:02:00,
2013-03-25 18:07:00,76.1,15.6,29.84,WSW,245,7.0,8.0,10,0.00,,,0.00,53,WeatherCatV1.11B39,2013-03-26 01:07:00,
2013-03-25 18:12:00,75.7,15.3,29.84,West,274,10.0,10.0,10,0.00,,,0.00,39,WeatherCatV1.11B39,2013-03-26 01:12:00,
2013-03-25 18:17:00,75.3,15.0,29.84,WSW,256,6.0,6.0,10,0.00,,,0.00,28,WeatherCatV1.11B39,2013-03-26 01:17:00,
2013-03-25 18:22:00,75.0,16.9,29.84,West,269,5.0,10.0,11,0.00,,,0.00,18,WeatherCatV1.11B39,2013-03-26 01:22:00,
2013-03-25 18:27:00,74.6,16.6,29.84,SW,226,6.0,8.0,11,0.00,,,0.00,12,WeatherCatV1.11B39,2013-03-26 01:27:00,
2013-03-25 18:32:00,74.2,16.3,29.85,West,281,6.0,12.0,11,0.00,,,0.00,9,WeatherCatV1.11B39,2013-03-26 01:32:00,
2013-03-25 18:37:00,73.8,16.0,29.85,WNW,286,7.0,9.0,11,0.00,,,0.00,5,WeatherCatV1.11B39,2013-03-26 01:37:00,
2013-03-25 18:42:00,73.4,15.7,29.85,WSW,251,7.0,8.0,11,0.00,,,0.00,0,WeatherCatV1.11B39,2013-03-26 01:42:00,
2013-03-25 18:47:00,73.1,17.5,29.85,WSW,256,8.0,10.0,12,0.00,,,0.00,0,WeatherCatV1.11B39,2013-03-26 01:47:00,
2013-03-25 18:52:00,72.8,17.2,29.85,WSW,238,8.0,12.0,12,0.00,,,0.00,0,WeatherCatV1.11B39,2013-03-26 01:52:00,
2013-03-25 18:57:00,72.6,17.1,29.85,West,278,6.0,13.0,12,0.00,,,0.00,0,WeatherCatV1.11B39,2013-03-26 01:57:00,
2013-03-25 19:02:00,72.5,17.0,29.85,WNW,286,5.0,10.0,12,0.00,,,0.00,0,WeatherCatV1.11B39,2013-03-26 02:02:00,
2013-03-25 19:07:00,72.0,16.6,29.85,West,272,3.0,8.0,12,0.00,,,0.00,0,WeatherCatV1.11B39,2013-03-26 02:07:00,
2013-03-25 19:12:00,71.5,16.2,29.85,West,277,5.0,6.0,12,0.00,,,0.00,0,WeatherCatV1.11B39,2013-03-26 02:12:00,
2013-03-25 19:17:00,71.1,17.8,29.86,West,281,3.0,6.0,13,0.00,,,0.00,0,WeatherCatV1.11B39,2013-03-26 02:17:00,
2013-03-25 19:22:00,70.6,17.4,29.86,West,278,2.0,3.0,13,0.00,,,0.00,0,WeatherCatV1.11B39,2013-03-26 02:22:00,
2013-03-25 19:27:00,70.1,17.0,29.86,West,281,1.0,2.0,13,0.00,,,0.00,0,WeatherCatV1.11B39,2013-03-26 02:27:00,
2013-03-25 19:32:00,69.2,18.0,29.86,West,281,1.0,2.0,14,0.00,,,0.00,0,WeatherCatV1.11B39,2013-03-26 02:32:00,
2013-03-25 19:37:00,68.4,19.0,29.86,West,281,0.0,1.0,15,0.00,,,0.00,0,WeatherCatV1.11B39,2013-03-26 02:37:00,
2013-03-25 19:42:00,68.0,18.6,29.86,West,281,0.0,0.0,15,0.00,,,0.00,0,WeatherCatV1.11B39,2013-03-26 02:42:00,
2013-03-25 19:47:00,67.1,17.9,29.87,West,281,2.0,2.0,15,0.00,,,0.00,0,WeatherCatV1.11B39,2013-03-26 02:47:00,
2013-03-25 19:52:00,66.3,17.3,29.87,West,281,0.0,0.0,15,0.00,,,0.00,0,WeatherCatV1.11B39,2013-03-26 02:52:00,
2013-03-25 19:57:00,65.7,18.3,29.87,West,281,0.0,0.0,16,0.00,,,0.00,0,WeatherCatV1.11B39,2013-03-26 02:57:00,
2013-03-25 20:02:00,65.7,18.3,29.87,West,281,0.0,1.0,16,0.00,,,0.00,0,WeatherCatV1.11B39,2013-03-26 03:02:00,
2013-03-25 20:07:00,66.1,18.6,29.87,West,281,1.0,1.0,16,0.00,,,0.00,0,WeatherCatV1.11B39,2013-03-26 03:07:00,
2013-03-25 20:12:00,65.8,18.4,29.87,SW,217,1.0,5.0,16,0.00,,,0.00,0,WeatherCatV1.11B39,2013-03-26 03:12:00,
2013-03-25 20:17:00,65.0,19.1,29.88,SSE,166,2.0,4.0,17,0.00,,,0.00,0,WeatherCatV1.11B39,2013-03-26 03:17:00,
2013-03-25 20:22:00,64.8,19.0,29.88,SSE,166,1.0,2.0,17,0.00,,,0.00,0,WeatherCatV1.11B39,2013-03-26 03:22:00,
2013-03-25 20:27:00,64.7,18.9,29.88,SSE,166,1.0,3.0,17,0.00,,,0.00,0,WeatherCatV1.11B39,2013-03-26 03:27:00,
2013-03-25 20:32:00,64.6,18.8,29.89,ESE,114,3.0,4.0,17,0.00,,,0.00,0,WeatherCatV1.11B39,2013-03-26 03:32:00,
2013-03-25 20:37:00,64.5,18.7,29.89,ENE,57,3.0,6.0,17,0.00,,,0.00,0,WeatherCatV1.11B39,2013-03-26 03:37:00,
2013-03-25 20:42:00,65.0,17.7,29.89,ENE,58,1.0,4.0,16,0.00,,,0.00,0,WeatherCatV1.11B39,2013-03-26 03:42:00,
2013-03-25 20:47:00,65.4,18.0,29.89,ENE,59,2.0,4.0,16,0.00,,,0.00,0,WeatherCatV1.11B39,2013-03-26 03:47:00,
2013-03-25 20:52:00,65.1,17.8,29.89,ENE,59,2.0,2.0,16,0.00,,,0.00,0,WeatherCatV1.11B39,2013-03-26 03:52:00,
2013-03-25 20:57:00,64.8,17.6,29.89,ENE,60,2.0,3.0,16,0.00,,,0.00,0,WeatherCatV1.11B39,2013-03-26 03:57:00,
2013-03-25 21:00:00,64.7,18.9,29.90,ENE,65,3.0,4.0,17,0.00,,,0.00,0,WeatherCatV1.11B39,2013-03-26 04:00:00,
2013-03-25 21:01:00,64.7,18.9,29.90,ENE,77,5.0,6.0,17,0.00,,,0.00,0,WeatherCatV1.11B39,2013-03-26 04:01:00,
2013-03-25 21:06:00,64.7,18.9,29.90,ENE,77,5.0,7.0,17,0.00,,,0.00,0,WeatherCatV1.11B39,2013-03-26 04:06:00,
2013-03-25 21:11:00,64.4,18.6,29.90,East,83,2.0,3.0,17,0.00,,,0.00,0,WeatherCatV1.11B39,2013-03-26 04:11:00,
2013-03-25 21:16:00,64.1,18.4,29.90,East,82,5.0,5.0,17,0.00,,,0.00,0,WeatherCatV1.11B39,2013-03-26 04:16:00,
2013-03-25 21:21:00,63.8,18.2,29.90,East,83,2.0,3.0,17,0.00,,,0.00,0,WeatherCatV1.11B39,2013-03-26 04:21:00,
2013-03-25 21:26:00,63.4,17.8,29.90,East,83,1.0,1.0,17,0.00,,,0.00,0,WeatherCatV1.11B39,2013-03-26 04:26:00,
2013-03-25 21:31:00,62.4,18.3,29.91,East,83,0.0,0.0,18,0.00,,,0.00,0,WeatherCatV1.11B39,2013-03-26 04:31:00,
2013-03-25 21:36:00,61.2,18.6,29.91,East,83,0.0,0.0,19,0.00,,,0.00,0,WeatherCatV1.11B39,2013-03-26 04:36:00,
2013-03-25 21:42:00,60.3,19.1,29.91,East,83,0.0,0.0,20,0.00,,,0.00,0,WeatherCatV1.11B39,2013-03-26 04:42:00,
2013-03-25 21:47:00,59.3,18.2,29.91,East,83,1.0,1.0,20,0.00,,,0.00,0,WeatherCatV1.11B39,2013-03-26 04:47:00,
2013-03-25 21:52:00,58.4,19.7,29.91,East,83,0.0,1.0,22,0.00,,,0.00,0,WeatherCatV1.11B39,2013-03-26 04:52:00,
2013-03-25 21:57:00,58.0,19.4,29.92,East,83,0.0,1.0,22,0.00,,,0.00,0,WeatherCatV1.11B39,2013-03-26 04:57:00,
2013-03-25 22:02:00,57.6,19.0,29.92,East,83,1.0,2.0,22,0.00,,,0.00,0,WeatherCatV1.11B39,2013-03-26 05:02:00,
2013-03-25 22:07:00,57.8,19.2,29.92,East,83,0.0,1.0,22,0.00,,,0.00,0,WeatherCatV1.11B39,2013-03-26 05:07:00,
2013-03-25 22:12:00,58.2,18.5,29.92,East,83,1.0,2.0,21,0.00,,,0.00,0,WeatherCatV1.11B39,2013-03-26 05:12:00,
2013-03-25 22:17:00,58.6,18.8,29.92,East,83,0.0,1.0,21,0.00,,,0.00,0,WeatherCatV1.11B39,2013-03-26 05:17:00,
2013-03-25 22:22:00,58.5,18.7,29.92,East,83,3.0,3.0,21,0.00,,,0.00,0,WeatherCatV1.11B39,2013-03-26 05:22:00,
2013-03-25 22:27:00,57.9,19.3,29.92,East,83,0.0,2.0,22,0.00,,,0.00,0,WeatherCatV1.11B39,2013-03-26 05:27:00,
2013-03-25 22:32:00,58.0,19.4,29.92,East,83,1.0,1.0,22,0.00,,,0.00,0,WeatherCatV1.11B39,2013-03-26 05:32:00,
2013-03-25 22:37:00,58.7,20.0,29.92,East,83,1.0,1.0,22,0.00,,,0.00,0,WeatherCatV1.11B39,2013-03-26 05:37:00,
2013-03-25 22:42:00,58.5,19.8,29.92,East,83,2.0,2.0,22,0.00,,,0.00,0,WeatherCatV1.11B39,2013-03-26 05:42:00,
2013-03-25 22:47:00,58.2,19.5,29.92,East,83,2.0,2.0,22,0.00,,,0.00,0,WeatherCatV1.11B39,2013-03-26 05:47:00,
2013-03-25 22:52:00,57.6,19.0,29.92,East,83,1.0,5.0,22,0.00,,,0.00,0,WeatherCatV1.11B39,2013-03-26 05:52:00,
2013-03-25 22:57:00,57.4,18.9,29.92,East,83,0.0,1.0,22,0.00,,,0.00,0,WeatherCatV1.11B39,2013-03-26 05:57:00,
2013-03-25 23:02:00,58.3,19.6,29.92,East,83,0.0,0.0,22,0.00,,,0.00,0,WeatherCatV1.11B39,2013-03-26 06:02:00,
2013-03-25 23:07:00,58.5,18.7,29.92,East,83,0.0,1.0,21,0.00,,,0.00,0,WeatherCatV1.11B39,2013-03-26 06:07:00,
2013-03-25 23:12:00,57.6,19.0,29.92,East,83,0.0,0.0,22,0.00,,,0.00,0,WeatherCatV1.11B39,2013-03-26 06:12:00,
2013-03-25 23:17:00,56.9,19.5,29.92,East,83,2.0,2.0,23,0.00,,,0.00,0,WeatherCatV1.11B39,2013-03-26 06:17:00,
2013-03-25 23:22:00,56.4,19.1,29.92,East,83,1.0,1.0,23,0.00,,,0.00,0,WeatherCatV1.11B39,2013-03-26 06:22:00,
2013-03-25 23:27:00,56.2,19.9,29.92,East,83,2.0,2.0,24,0.00,,,0.00,0,WeatherCatV1.11B39,2013-03-26 06:27:00,
2013-03-25 23:32:00,55.7,19.5,29.92,East,83,2.0,3.0,24,0.00,,,0.00,0,WeatherCatV1.11B39,2013-03-26 06:32:00,
2013-03-25 23:37:00,55.1,19.9,29.91,East,82,2.0,3.0,25,0.00,,,0.00,0,WeatherCatV1.11B39,2013-03-26 06:37:00,
2013-03-25 23:42:00,55.5,19.3,29.91,East,83,1.0,2.0,24,0.00,,,0.00,0,WeatherCatV1.11B39,2013-03-26 06:42:00,
2013-03-25 23:47:00,55.3,19.1,29.91,East,83,0.0,1.0,24,0.00,,,0.00,0,WeatherCatV1.11B39,2013-03-26 06:47:00,
2013-03-25 23:52:00,54.7,19.6,29.91,East,82,0.0,0.0,25,0.00,,,0.00,0,WeatherCatV1.11B39,2013-03-26 06:52:00,
2013-03-25 23:57:00,54.0,19.9,29.91,East,82,0.0,0.0,26,0.00,,,0.00,0,WeatherCatV1.11B39,2013-03-26 06:57:00,